Weather History for Kenai, AK

Change the Weather History Date:

Wednesday, November 7, 2012

  Actual Average Record
Temperature  
Mean Temperature 12 °F -  
Max Temperature 26 °F 32 °F 46 °F (1983)
Min Temperature -2 °F 17 °F -16 °F (1956)
Degree Days  
Heating Degree Days 53    
Moisture  
Dew Point 1 °F    
Average Humidity 75    
Maximum Humidity 88    
Minimum Humidity 49    
Precipitation  
Precipitation 0.00 in - - ()
Sea Level Pressure  
Sea Level Pressure 30.32 in    
Wind  
Wind Speed 1 mph (ENE)    
Max Wind Speed 5 mph    
Max Gust Speed -    
Visibility 10 miles    
Events      
Averages and records for this station are not official NWS values.
T = Trace of Precipitation, MM = Missing Value Source: NWS Daily Summary

Daily Weather History Graph

Daily Weather History Graph

Search for Another Location

Airport:

Trip Planner

Search our weather history database for the weather conditions in past years. The results will help you decide how hot, cold, wet, or windy it might be!

Date:

Astronomy

Nov. 07, 2012 Rise Set
Actual Time 8:47 AM AKST 4:48 PM AKST
Civil Twilight 7:59 AM AKST 5:36 PM AKST
Nautical Twilight 7:08 AM AKST 6:28 PM AKST
Astronomical Twilight 6:18 AM AKST 7:17 PM AKST
Moon 12:05 AM AKST (11/7) 2:38 PM AKST (11/7)
Length of Visible Light 9h 37m
Length of Day
8h 01m
Last Quarter, 41% of the Moon is Illuminated
Nov 7
Last Quarter
Nov 13
New
Nov 20
First Quarter
Nov 28
Full
Dec 6
Last Quarter

Hourly Weather History & Observations

Time (AKST) Temp. Windchill Dew Point Humidity Pressure Visibility Wind Dir Wind Speed Gust Speed Precip Events Conditions
12:53 AM 1.9 °F - -0.9 °F 88% 30.20 in 10.0 mi Calm Calm - N/A   Clear
1:53 AM -0.9 °F - -5.1 °F 83% 30.21 in 10.0 mi Calm Calm - N/A   Clear
3:53 AM 1.0 °F - -2.9 °F 83% 30.24 in 10.0 mi Calm Calm - N/A   Clear
4:53 AM -2.0 °F -12.2 °F -7.1 °F 79% 30.24 in 10.0 mi ENE 4.6 mph - N/A   Clear
5:53 AM -0.0 °F - -2.9 °F 88% 30.26 in 10.0 mi Calm Calm - N/A   Clear
6:53 AM -2.9 °F - -7.1 °F 82% 30.27 in 10.0 mi Calm Calm - N/A   Clear
7:53 AM -2.0 °F - -6.0 °F 83% 30.30 in 10.0 mi Calm Calm - N/A   Clear
8:53 AM -2.9 °F - -6.0 °F 87% 30.32 in 10.0 mi Calm Calm - N/A   Clear
9:53 AM -0.0 °F - -5.1 °F 79% 30.32 in 10.0 mi Calm Calm - N/A   Clear
10:53 AM 8.1 °F - 3.0 °F 80% 30.33 in 10.0 mi Calm Calm - N/A   Clear
11:53 AM 18.0 °F - 12.0 °F 78% 30.35 in 10.0 mi Calm Calm - N/A   Clear
12:53 PM 21.9 °F - 9.0 °F 58% 30.35 in 10.0 mi Calm Calm - N/A   Clear
1:53 PM 25.0 °F 19.3 °F 10.0 °F 53% 30.35 in 10.0 mi East 4.6 mph - N/A   Clear
2:53 PM 26.1 °F - 9.0 °F 49% 30.35 in 10.0 mi Calm Calm - N/A   Clear
3:53 PM 25.0 °F - 10.0 °F 53% 30.35 in 10.0 mi Calm Calm - N/A   Clear
4:53 PM 21.9 °F 15.7 °F 7.0 °F 53% 30.35 in 10.0 mi ENE 4.6 mph - N/A   Clear
5:53 PM 12.9 °F 6.9 °F 5.0 °F 71% 30.36 in 10.0 mi ENE 3.5 mph - N/A   Clear
6:53 PM 10.9 °F - 3.9 °F 73% 30.38 in 10.0 mi Calm Calm - N/A   Clear
7:53 PM 6.1 °F -2.8 °F 1.0 °F 80% 30.37 in 10.0 mi NE 4.6 mph - N/A   Clear
8:53 PM 6.1 °F -2.8 °F 1.0 °F 80% 30.38 in 10.0 mi NNE 4.6 mph - N/A   Clear
9:53 PM 3.0 °F -6.4 °F -2.0 °F 80% 30.38 in 10.0 mi NE 4.6 mph - N/A   Clear
10:53 PM 6.1 °F - 1.9 °F 83% 30.38 in 10.0 mi Calm Calm - N/A   Clear
11:53 PM 7.0 °F - 1.9 °F 80% 30.40 in 10.0 mi Calm Calm - N/A   Clear